Silver City, NM

6:50 AM MST on December 09, 2019 (GMT -0700)
Grant County

Weather History for KSVC - October, 2019

Change the Weather History Date:

Thursday, October 24, 2019

  Actual Average (WUND) Record (WUND)
Temperature  
Mean Temperature 53 °F -  
Max Temperature 69 °F - - (-1)
Min Temperature 33 °F - - (-1)
Degree Days  
Heating Degree Days 12    
Growing Degree Days 3 (Base 50)    
Moisture  
Dew Point 20 °F    
Average Humidity 30    
Maximum Humidity 54    
Minimum Humidity 10    
Precipitation  
Precipitation 0.00 in - - ()
Sea Level Pressure  
Sea Level Pressure 30.14 in    
Wind  
Wind Speed 10 mph (NNW)    
Max Wind Speed 17 mph    
Max Gust Speed 23 mph    
Visibility 10 miles    
Events      
Averages and records for this station are not official NWS values.
T = Trace of Precipitation, MM = Missing Value Source: NWS Daily Summary

Daily Weather History Graph

Daily Weather History Graph

Search for Another Location

Airport or City:

Astronomy

Oct. 24, 2019 Rise Set
Actual Time 7:23 AM MDT 6:29 PM MDT
Civil Twilight 6:58 AM MDT 6:54 PM MDT
Nautical Twilight 6:29 AM MDT 7:23 PM MDT
Astronomical Twilight 6:00 AM MDT 7:52 PM MDT
Moon 3:16 AM MDT (10/24) 4:41 PM MDT (10/24)
Length of Visible Light 11h 56m
Length of Day
11h 06m
Waning Crescent, 16% of the Moon is Illuminated
Oct 24
Waning Crescent
Oct 27
New
Nov 4
First Quarter
Nov 12
Full
Nov 19
Last Quarter

Hourly Weather History & Observations

Time (MDT) Temp. Windchill Dew Point Humidity Pressure Visibility Wind Dir Wind Speed Gust Speed Precip Events Conditions
12:15 AM 45.7 °F 41.0 °F 22.1 °F 39% 30.05 in 10.0 mi NNW 9.2 mph - N/A   Clear
12:35 AM 46.0 °F 41.0 °F 22.8 °F 40% 30.05 in 10.0 mi NW 10.4 mph - N/A   Clear
12:55 AM 47.1 °F - 23.0 °F 39% 30.05 in 10.0 mi North 8.1 mph - N/A   Clear
1:15 AM 45.1 °F 40.3 °F 23.4 °F 42% 30.06 in 10.0 mi NW 9.2 mph - N/A   Clear
1:35 AM 44.2 °F 38.8 °F 23.2 °F 43% 30.06 in 10.0 mi NNW 10.4 mph - N/A   Clear
1:55 AM 45.1 °F 39.9 °F 23.7 °F 43% 30.06 in 10.0 mi NNW 10.4 mph - N/A   Clear
2:15 AM 45.5 °F 41.3 °F 23.9 °F 43% 30.06 in 10.0 mi North 8.1 mph - N/A   Clear
2:35 AM 46.6 °F - 24.1 °F 41% 30.06 in 10.0 mi North 10.4 mph - N/A   Clear
2:55 AM 42.3 °F 36.3 °F 23.7 °F 48% 30.06 in 10.0 mi NNW 10.4 mph - N/A   Clear
3:15 AM 42.4 °F 37.5 °F 23.9 °F 48% 30.06 in 10.0 mi NNW 8.1 mph - N/A   Clear
3:55 AM 43.0 °F 36.8 °F 23.5 °F 46% 30.06 in 10.0 mi North 11.5 mph - N/A   Clear
4:15 AM 42.6 °F 36.3 °F 23.2 °F 46% 30.06 in 10.0 mi North 11.5 mph - N/A   Clear
4:35 AM 44.2 °F 40.3 °F 22.8 °F 43% 30.06 in 10.0 mi North 6.9 mph - N/A   Clear
4:55 AM 40.8 °F 34.1 °F 21.4 °F 46% 30.06 in 10.0 mi NNW 11.5 mph - N/A   Clear
5:15 AM 41.9 °F 35.9 °F 20.3 °F 42% 30.06 in 10.0 mi NNW 10.4 mph - N/A   Clear
5:55 AM 43.2 °F 37.9 °F 17.2 °F 35% 30.07 in 10.0 mi NNW 9.2 mph - N/A   Clear
6:15 AM 41.4 °F 35.7 °F 17.6 °F 38% 30.07 in 10.0 mi NW 9.2 mph - N/A   Clear
6:35 AM 46.6 °F - 16.0 °F 29% 30.08 in 10.0 mi NW 9.2 mph - N/A   Clear
6:55 AM 45.7 °F 42.0 °F 17.1 °F 32% 30.08 in 10.0 mi NNW 6.9 mph - N/A   Clear
7:15 AM 43.7 °F 38.6 °F 17.2 °F 35% 30.09 in 10.0 mi NW 9.2 mph - N/A   Clear
7:35 AM 44.8 °F 39.0 °F 17.1 °F 33% 30.09 in 10.0 mi NW 11.5 mph - N/A   Clear
7:55 AM 46.8 °F - 17.2 °F 31% 30.10 in 10.0 mi NW 11.5 mph - N/A   Clear
8:15 AM 50.7 °F - 17.4 °F 27% 30.11 in 10.0 mi NW 11.5 mph - N/A   Clear
8:35 AM 52.0 °F - 20.1 °F 29% 30.11 in 10.0 mi NW 13.8 mph - N/A   Clear
8:55 AM 53.6 °F - 21.7 °F 29% 30.12 in 10.0 mi NW 15.0 mph - N/A   Clear
9:15 AM 55.9 °F - 22.1 °F 27% 30.13 in 10.0 mi NW 13.8 mph - N/A   Clear
9:35 AM 59.0 °F - 21.4 °F 23% 30.13 in 10.0 mi NW 13.8 mph - N/A   Clear
9:55 AM 61.5 °F - 20.3 °F 20% 30.14 in 10.0 mi NW 11.5 mph - N/A   Clear
10:15 AM 63.3 °F - 19.6 °F 19% 30.14 in 10.0 mi WNW 11.5 mph - N/A   Clear
10:35 AM 64.8 °F - 18.1 °F 17% 30.14 in 10.0 mi NW 10.4 mph - N/A   Clear
10:55 AM 65.7 °F - 15.3 °F 14% 30.15 in 10.0 mi NNW 8.1 mph - N/A   Clear
11:15 AM 66.2 °F - 16.0 °F 14% 30.15 in 10.0 mi WNW 6.9 mph - N/A   Clear
11:35 AM 66.2 °F - 14.9 °F 14% 30.16 in 10.0 mi West 6.9 mph - N/A   Clear
11:55 AM 67.1 °F - 14.4 °F 13% 30.16 in 10.0 mi West 8.1 mph - N/A   Clear
12:15 PM 68.2 °F - 10.9 °F 11% 30.15 in 10.0 mi WNW 11.5 mph 18.4 mph N/A   Clear
12:35 PM 68.4 °F - 10.8 °F 11% 30.14 in 10.0 mi WNW 13.8 mph 19.6 mph N/A   Clear
12:55 PM 69.6 °F - 9.1 °F 10% 30.14 in 10.0 mi West 13.8 mph - N/A   Clear
1:15 PM 69.6 °F - 10.6 °F 10% 30.14 in 10.0 mi NW 15.0 mph 21.9 mph N/A   Clear
1:35 PM 69.1 °F - 13.5 °F 12% 30.13 in 10.0 mi NW 9.2 mph - N/A   Clear
1:55 PM 69.4 °F - 14.2 °F 12% 30.13 in 10.0 mi WSW 8.1 mph 17.3 mph N/A   Clear
2:15 PM 69.8 °F - 19.8 °F 15% 30.12 in 10.0 mi SW 10.4 mph - N/A   Clear
2:35 PM 69.3 °F - 23.2 °F 18% 30.11 in 10.0 mi South 17.3 mph - N/A   Clear
2:55 PM 67.1 °F - 22.8 °F 19% 30.12 in 10.0 mi SSE 12.7 mph - N/A   Clear
3:15 PM 66.9 °F - 22.6 °F 19% 30.12 in 10.0 mi South 12.7 mph 18.4 mph N/A   Clear
3:35 PM 66.9 °F - 22.6 °F 19% 30.12 in 10.0 mi South 12.7 mph 19.6 mph N/A   Clear
3:55 PM 66.6 °F - 22.5 °F 19% 30.13 in 10.0 mi South 12.7 mph - N/A   Clear
4:15 PM 65.3 °F - 21.7 °F 19% 30.13 in 10.0 mi SSE 16.1 mph 21.9 mph N/A   Clear
4:35 PM 65.1 °F - 21.2 °F 19% 30.14 in 10.0 mi SSE 11.5 mph - N/A   Clear
4:55 PM 64.4 °F - 21.2 °F 19% 30.14 in 10.0 mi ESE 16.1 mph 21.9 mph N/A   Clear
5:15 PM 61.5 °F - 21.4 °F 21% 30.15 in 10.0 mi East 13.8 mph 17.3 mph N/A   Clear
5:35 PM 60.3 °F - 21.2 °F 22% 30.15 in 10.0 mi ESE 15.0 mph - N/A   Clear
5:55 PM 58.6 °F - 19.9 °F 22% 30.16 in 10.0 mi ESE 17.3 mph 21.9 mph N/A   Clear
6:15 PM 56.3 °F - 18.5 °F 23% 30.17 in 10.0 mi East 17.3 mph 20.7 mph N/A   Clear
6:35 PM 53.8 °F - 19.4 °F 26% 30.18 in 10.0 mi East 13.8 mph 23.0 mph N/A   Clear
6:55 PM 52.5 °F - 19.4 °F 27% 30.19 in 10.0 mi East 15.0 mph 20.7 mph N/A   Clear
7:15 PM 51.1 °F - 20.5 °F 30% 30.19 in 10.0 mi East 12.7 mph - N/A   Clear
7:35 PM 50.0 °F - 20.8 °F 32% 30.20 in 10.0 mi East 13.8 mph - N/A   Clear
7:55 PM 49.3 °F - 20.8 °F 33% 30.21 in 10.0 mi ENE 12.7 mph - N/A   Clear
8:15 PM 48.4 °F - 21.0 °F 34% 30.23 in 10.0 mi East 9.2 mph - N/A   Clear
8:35 PM 48.0 °F - 20.8 °F 34% 30.23 in 10.0 mi ENE 10.4 mph - N/A   Clear
8:55 PM 46.8 °F - 20.8 °F 36% 30.22 in 10.0 mi East 8.1 mph - N/A   Clear
9:15 PM 44.1 °F 38.6 °F 21.0 °F 40% 30.25 in 10.0 mi East 10.4 mph - N/A   Clear
9:35 PM 44.6 °F 39.2 °F 19.9 °F 37% 30.24 in 10.0 mi ESE 10.4 mph - N/A   Clear
9:55 PM 43.0 °F 37.2 °F 19.4 °F 39% 30.25 in 10.0 mi ESE 10.4 mph - N/A   Clear
10:15 PM 41.4 °F 37.6 °F 19.0 °F 41% 30.26 in 10.0 mi East 5.8 mph - N/A   Clear
10:35 PM 41.0 °F - 19.6 °F 42% 30.27 in 10.0 mi Calm Calm - N/A   Clear
10:55 PM 38.1 °F 31.2 °F 18.9 °F 46% 30.28 in 10.0 mi WNW 10.4 mph - N/A   Clear
11:15 PM 38.8 °F - 19.4 °F 46% 30.29 in 10.0 mi Calm Calm - N/A   Clear
11:35 PM 37.8 °F - 18.7 °F 46% 30.29 in 10.0 mi Calm Calm - N/A   Clear
11:55 PM 33.4 °F - 18.3 °F 54% 30.30 in 10.0 mi Calm Calm - N/A   Clear